Tracking 28125 objects as of 2-Oct-2023
HD Live streaming from Space Station
objects crossing your sky now

STARLINK-4086

Track STARLINK-4086 now!
10-day predictions
STARLINK-4086 is classified as:


NORAD ID: 52833
Int'l Code: 2022-062D
Perigee: 546.0 km
Apogee: 547.7 km
Inclination: 53.2 °
Period: 95.4 minutes
Semi major axis: 6917 km
RCS: Unknown
Launch date: June 17, 2022
Source: United States (US)
Launch site: AIR FORCE EASTERN TEST RANGE (AFETR)
Your satellite tracking list
Your tracking list is empty




NASA's NSSDC Master Catalog

Two Line Element Set (TLE):
1 52833U 22062D   23274.70065531  .00004201  00000-0  28179-3 0  9995
2 52833  53.2169  69.4317 0001209  81.1119 279.0010 15.08855215 71425
Source of the keplerian elements: AFSPC